nws-alerts: Checking more than four warning/county codes can delay the loading of your pages. You should use a cron job to get the data.
EllijayWeather Historical Data
Daily Summary for January 24, 2019 Units:  English    Metric   Both
Daily Weekly Monthly Yearly
  High: Low: Average:
Temperature: 50.0 °F 27.0 °F 36.9 °F
Dew Point: 50.0 °F 25.0 °F 34 °F
Humidity: 100% 70% 90%
Wind Speed: 13mph 0mph 1.3mph
Wind Gust: 13mph - -
Wind- - WNW
Pressure: 30.2 in 29.7 in -
Precipitation: 0.100 in    
 
 
Tabular Data for January 24, 2019
Time Temperature Dew Point Pressure Wind Wind Speed Wind Gust Humidity Rainfall Rate (Hourly)
00:04 50.0 °F 50.0 °F 29.8 in Calm     98% 0.170 in
00:09 50.0 °F 50.0 °F 29.8 in Calm     98% 0.170 in
00:14 50.0 °F 50.0 °F 29.8 in Calm     98% 0.160 in
00:19 50.0 °F 50.0 °F 29.8 in Calm     98% 0.150 in
00:24 50.0 °F 50.0 °F 29.8 in Calm     98% 0.130 in
00:29 50.0 °F 50.0 °F 29.8 in Calm     98% 0.100 in
00:34 50.0 °F 50.0 °F 29.7 in Calm     98% 0.100 in
00:39 50.0 °F 49.0 °F 29.7 in Calm     98% 0.080 in
00:44 50.0 °F 49.0 °F 29.7 in Calm     98% 0.050 in
00:49 50.0 °F 50.0 °F 29.7 in Calm     98% 0.050 in
00:54 50.0 °F 50.0 °F 29.7 in Calm     98% 0.040 in
00:59 50.0 °F 50.0 °F 29.7 in Calm     98% 0.030 in
01:04 50.0 °F 50.0 °F 29.7 in Calm     98% 0.020 in
01:09 50.0 °F 50.0 °F 29.7 in Calm     98% 0.020 in
01:14 50.0 °F 49.0 °F 29.7 in Calm     98% 0.010 in
01:19 50.0 °F 49.0 °F 29.7 in Calm     98% 0.010 in
01:24 50.0 °F 49.0 °F 29.7 in Calm     98% 0.010 in
01:29 50.0 °F 49.0 °F 29.7 in Calm     98% 0.010 in
01:34 50.0 °F 49.0 °F 29.7 in Calm     98% 0.000 in
01:39 50.0 °F 49.0 °F 29.7 in Calm     98% 0.000 in
01:44 49.0 °F 49.0 °F 29.7 in Calm     98% 0.000 in
01:49 49.0 °F 49.0 °F 29.7 in Calm     98% 0.000 in
01:54 49.0 °F 49.0 °F 29.8 in Calm     98% 0.000 in
01:59 49.0 °F 49.0 °F 29.8 in Calm     98% 0.000 in
02:04 50.0 °F 49.0 °F 29.8 in Calm     99% 0.000 in
02:09 50.0 °F 49.0 °F 29.7 in Calm     99% 0.000 in
02:14 50.0 °F 49.0 °F 29.7 in Calm     99% 0.010 in
02:19 50.0 °F 49.0 °F 29.8 in Calm     99% 0.010 in
02:24 50.0 °F 49.0 °F 29.8 in Calm     99% 0.010 in
02:29 50.0 °F 49.0 °F 29.8 in Calm     99% 0.010 in
02:34 50.0 °F 49.0 °F 29.8 in Calm     98% 0.010 in
02:39 49.0 °F 49.0 °F 29.8 in Calm     98% 0.010 in
02:44 49.0 °F 49.0 °F 29.8 in Calm     99% 0.010 in
02:49 50.0 °F 49.0 °F 29.8 in Calm     99% 0.010 in
02:54 50.0 °F 50.0 °F 29.8 in Calm     99% 0.010 in
02:59 50.0 °F 50.0 °F 29.8 in Calm     99% 0.020 in
03:04 50.0 °F 50.0 °F 29.8 in Calm     99% 0.030 in
03:09 50.0 °F 50.0 °F 29.8 in Calm     99% 0.030 in
03:14 50.0 °F 50.0 °F 29.8 in Calm     99% 0.030 in
03:19 50.0 °F 50.0 °F 29.8 in Calm     99% 0.020 in
03:24 50.0 °F 50.0 °F 29.8 in Calm     99% 0.020 in
03:29 50.0 °F 50.0 °F 29.8 in Calm     99% 0.020 in
03:34 50.0 °F 50.0 °F 29.7 in Calm     99% 0.020 in
03:39 50.0 °F 50.0 °F 29.7 in Calm     99% 0.020 in
03:44 50.0 °F 50.0 °F 29.7 in Calm     99% 0.030 in
03:49 50.0 °F 50.0 °F 29.7 in Calm     99% 0.030 in
03:54 50.0 °F 50.0 °F 29.7 in Calm     99% 0.030 in
03:59 50.0 °F 50.0 °F 29.7 in Calm     99% 0.020 in
04:04 50.0 °F 50.0 °F 29.7 in Calm     99% 0.020 in
04:09 50.0 °F 49.0 °F 29.7 in Calm     98% 0.010 in
04:14 50.0 °F 49.0 °F 29.7 in Calm     98% 0.010 in
04:19 50.0 °F 49.0 °F 29.7 in Calm     99% 0.020 in
04:24 50.0 °F 49.0 °F 29.7 in Calm     99% 0.030 in
04:29 49.0 °F 49.0 °F 29.7 in Calm     98% 0.030 in
04:34 48.0 °F 47.0 °F 29.7 in Calm     96% 0.040 in
04:39 47.0 °F 46.0 °F 29.7 in Calm     95% 0.040 in
04:44 46.0 °F 44.0 °F 29.8 in Calm     95% 0.030 in
04:49 45.0 °F 44.0 °F 29.8 in Calm     96% 0.030 in
04:54 45.0 °F 44.0 °F 29.8 in Calm     96% 0.030 in
04:59 45.0 °F 45.0 °F 29.8 in Calm     100% 0.030 in
05:04 44.0 °F 44.0 °F 29.8 in Calm     97% 0.030 in
05:09 44.0 °F 43.0 °F 29.8 in Calm     96% 0.030 in
05:14 44.0 °F 43.0 °F 29.8 in Calm     96% 0.030 in
05:19 44.0 °F 43.0 °F 29.8 in Calm     96% 0.020 in
05:24 44.0 °F 42.0 °F 29.8 in Calm     96% 0.020 in
05:29 43.0 °F 42.0 °F 29.8 in Calm     95% 0.020 in
05:34 43.0 °F 41.0 °F 29.8 in Calm     95% 0.020 in
05:39 42.0 °F 41.0 °F 29.8 in Calm     96% 0.010 in
05:44 42.0 °F 41.0 °F 29.8 in Calm     96% 0.010 in
05:49 42.0 °F 41.0 °F 29.8 in Calm     96% 0.010 in
05:54 42.0 °F 41.0 °F 29.8 in Calm     96% 0.010 in
05:59 42.0 °F 41.0 °F 29.8 in Calm     96% 0.010 in
06:04 41.0 °F 40.0 °F 29.8 in Calm     96% 0.010 in
06:09 41.0 °F 41.0 °F 29.8 in Calm     97% 0.010 in
06:14 41.0 °F 40.0 °F 29.8 in Calm     96% 0.010 in
06:19 41.0 °F 40.0 °F 29.8 in Calm     96% 0.010 in
06:24 41.0 °F 40.0 °F 29.8 in Calm     96% 0.010 in
06:29 41.0 °F 40.0 °F 29.8 in Calm     96% 0.000 in
06:34 41.0 °F 40.0 °F 29.8 in Calm     96% 0.000 in
06:39 41.0 °F 39.0 °F 29.8 in Calm     95% 0.000 in
06:44 40.0 °F 39.0 °F 29.8 in Calm     95% 0.000 in
06:49 40.0 °F 38.0 °F 29.8 in Calm     95% 0.000 in
06:54 39.0 °F 38.0 °F 29.8 in Calm     96% 0.000 in
06:59 39.0 °F 38.0 °F 29.8 in Calm     96% 0.000 in
07:04 39.0 °F 38.0 °F 29.8 in Calm     96% 0.000 in
07:09 39.0 °F 38.0 °F 29.8 in Calm     96% 0.000 in
07:14 39.0 °F 38.0 °F 29.8 in Calm     96% 0.000 in
07:19 39.0 °F 37.0 °F 29.8 in Calm     96% 0.000 in
07:24 38.0 °F 37.0 °F 29.8 in Calm     96% 0.000 in
07:29 38.0 °F 37.0 °F 29.8 in Calm     96% 0.000 in
07:34 38.0 °F 37.0 °F 29.8 in Calm     96% 0.000 in
07:39 38.0 °F 37.0 °F 29.8 in Calm     96% 0.000 in
07:44 38.0 °F 37.0 °F 29.9 in Calm     96% 0.000 in
07:49 37.0 °F 36.0 °F 29.9 in Calm     96% 0.000 in
07:54 37.0 °F 36.0 °F 29.9 in Calm     96% 0.000 in
07:59 37.0 °F 36.0 °F 29.9 in Calm     96% 0.000 in
08:04 37.0 °F 36.0 °F 29.9 in Calm     96% 0.000 in
08:09 37.0 °F 35.0 °F 29.9 in Calm     95% 0.000 in
08:14 36.0 °F 35.0 °F 29.9 in Calm     95% 0.000 in
08:19 36.0 °F 35.0 °F 29.9 in Calm     95% 0.000 in
08:24 36.0 °F 35.0 °F 29.9 in Calm     95% 0.000 in
08:29 35.0 °F 34.0 °F 29.9 in Calm     94% 0.000 in
08:34 35.0 °F 34.0 °F 29.9 in NNW 5 mph 7 mph 95% 0.000 in
08:39 35.0 °F 33.0 °F 29.9 in NW 3 mph 7 mph 94% 0.000 in
08:44 35.0 °F 34.0 °F 29.9 in NNW 2 mph 5 mph 95% 0.000 in
08:49 35.0 °F 33.0 °F 29.9 in WNW 5 mph 9 mph 95% 0.000 in
08:54 34.0 °F 33.0 °F 29.9 in WNW 3 mph 5 mph 95% 0.000 in
08:59 34.0 °F 33.0 °F 29.9 in WNW 1 mph 2 mph 95% 0.000 in
09:04 34.0 °F 33.0 °F 29.9 in WNW 6 mph 6 mph 95% 0.000 in
09:09 34.0 °F 33.0 °F 29.9 in NNW 3 mph 5 mph 95% 0.000 in
09:14 34.0 °F 33.0 °F 29.9 in WNW 3 mph 7 mph 94% 0.000 in
09:19 34.0 °F 33.0 °F 29.9 in NNE 5 mph 10 mph 94% 0.000 in
09:24 34.0 °F 33.0 °F 29.9 in NW 5 mph 7 mph 94% 0.000 in
09:29 34.0 °F 32.0 °F 29.9 in WNW 1 mph 8 mph 94% 0.000 in
09:34 34.0 °F 32.0 °F 29.9 in WNW 1 mph 5 mph 94% 0.000 in
09:39 34.0 °F 32.0 °F 29.9 in Calm   2 mph 94% 0.000 in
09:44 34.0 °F 32.0 °F 29.9 in NW 2 mph 6 mph 94% 0.000 in
09:49 34.0 °F 32.0 °F 29.9 in NE 10 mph 11 mph 93% 0.000 in
09:54 34.0 °F 32.0 °F 29.9 in NW 5 mph 6 mph 93% 0.000 in
09:59 34.0 °F 32.0 °F 29.9 in West 1 mph 4 mph 93% 0.000 in
10:04 34.0 °F 33.0 °F 29.9 in NW 10 mph 10 mph 93% 0.000 in
10:09 34.0 °F 32.0 °F 29.9 in NW 5 mph 10 mph 92% 0.000 in
10:14 34.0 °F 32.0 °F 29.9 in NW 5 mph 9 mph 92% 0.000 in
10:19 34.0 °F 32.0 °F 29.9 in NNW 3 mph 6 mph 92% 0.000 in
10:24 33.0 °F 31.0 °F 29.9 in North 4 mph 7 mph 92% 0.000 in
10:29 33.0 °F 31.0 °F 29.9 in NW 5 mph 11 mph 92% 0.000 in
10:34 33.0 °F 31.0 °F 29.9 in WNW 5 mph 12 mph 91% 0.000 in
10:39 33.0 °F 30.0 °F 29.9 in SSE 6 mph 12 mph 91% 0.000 in
10:44 33.0 °F 31.0 °F 29.9 in West 2 mph 6 mph 92% 0.000 in
10:49 33.0 °F 31.0 °F 30.0 in WSW 4 mph 7 mph 92% 0.000 in
10:54 33.0 °F 31.0 °F 30.0 in South 4 mph 7 mph 92% 0.000 in
10:59 33.0 °F 30.0 °F 30.0 in West 5 mph 7 mph 91% 0.000 in
11:04 33.0 °F 30.0 °F 30.0 in NW 5 mph 9 mph 90% 0.000 in
11:09 33.0 °F 30.0 °F 30.0 in NNW 1 mph 6 mph 91% 0.000 in
11:14 33.0 °F 30.0 °F 30.0 in NW 2 mph 5 mph 91% 0.000 in
11:19 33.0 °F 31.0 °F 30.0 in NW 3 mph 11 mph 92% 0.000 in
11:24 33.0 °F 31.0 °F 30.0 in WNW 6 mph 10 mph 92% 0.000 in
11:29 33.0 °F 30.0 °F 30.0 in WNW 2 mph 9 mph 90% 0.000 in
11:34 33.0 °F 31.0 °F 30.0 in North 4 mph 5 mph 91% 0.000 in
11:39 33.0 °F 32.0 °F 30.0 in West 3 mph 10 mph 96% 0.000 in
11:44 33.0 °F 31.0 °F 30.0 in WNW 2 mph 5 mph 90% 0.000 in
11:49 34.0 °F 31.0 °F 30.0 in NNW 4 mph 8 mph 91% 0.000 in
11:54 34.0 °F 31.0 °F 30.0 in WNW 4 mph 5 mph 91% 0.000 in
11:59 34.0 °F 31.0 °F 30.0 in NW 3 mph 11 mph 89% 0.000 in
12:04 33.0 °F 30.0 °F 30.0 in NNW 2 mph 4 mph 87% 0.000 in
12:09 33.0 °F 30.0 °F 30.0 in NNE 5 mph 6 mph 89% 0.000 in
12:14 33.0 °F 30.0 °F 30.0 in NNW 3 mph 5 mph 89% 0.000 in
12:19 33.0 °F 30.0 °F 30.0 in NNW 13 mph 13 mph 88% 0.000 in
12:24 33.0 °F 30.0 °F 30.0 in NW 10 mph 13 mph 87% 0.000 in
12:29 33.0 °F 30.0 °F 30.0 in West 1 mph 5 mph 88% 0.000 in
12:34 33.0 °F 30.0 °F 30.0 in West 1 mph 3 mph 88% 0.000 in
12:39 33.0 °F 30.0 °F 30.0 in NW 7 mph 9 mph 89% 0.000 in
12:44 34.0 °F 31.0 °F 30.0 in NE 1 mph 9 mph 89% 0.000 in
12:49 34.0 °F 30.0 °F 30.0 in NW 3 mph 4 mph 88% 0.000 in
12:54 34.0 °F 31.0 °F 30.0 in NW 6 mph 7 mph 87% 0.000 in
12:59 34.0 °F 30.0 °F 30.0 in WNW 4 mph 7 mph 86% 0.000 in
13:04 34.0 °F 30.0 °F 30.0 in WNW 5 mph 5 mph 86% 0.000 in
13:09 34.0 °F 31.0 °F 30.0 in NNW 1 mph 6 mph 87% 0.000 in
13:14 34.0 °F 30.0 °F 30.0 in NW 4 mph 6 mph 85% 0.000 in
13:19 35.0 °F 30.0 °F 30.0 in NW 5 mph 7 mph 84% 0.000 in
13:24 35.0 °F 31.0 °F 30.0 in NW 1 mph 5 mph 85% 0.000 in
13:29 35.0 °F 30.0 °F 30.0 in WNW 2 mph 5 mph 84% 0.000 in
13:34 35.0 °F 30.0 °F 30.0 in North 4 mph 5 mph 83% 0.000 in
13:39 35.0 °F 30.0 °F 30.0 in NW 3 mph 5 mph 83% 0.000 in
13:44 35.0 °F 30.0 °F 30.0 in NW 3 mph 4 mph 82% 0.000 in
13:49 36.0 °F 31.0 °F 30.0 in WSW 4 mph 4 mph 82% 0.000 in
13:54 36.0 °F 30.0 °F 30.0 in West 1 mph 5 mph 80% 0.000 in
13:59 36.0 °F 31.0 °F 30.0 in WNW 6 mph 6 mph 82% 0.000 in
14:04 35.0 °F 29.0 °F 30.0 in WNW 4 mph 7 mph 79% 0.000 in
14:09 35.0 °F 29.0 °F 30.0 in NW 2 mph 3 mph 79% 0.000 in
14:14 35.0 °F 29.0 °F 30.0 in WNW 4 mph 6 mph 79% 0.000 in
14:19 35.0 °F 29.0 °F 30.0 in NW 1 mph 5 mph 79% 0.000 in
14:24 35.0 °F 30.0 °F 30.0 in NW 2 mph 3 mph 80% 0.000 in
14:29 36.0 °F 30.0 °F 30.0 in WNW 3 mph 4 mph 80% 0.000 in
14:34 36.0 °F 30.0 °F 30.0 in NNW 5 mph 7 mph 78% 0.000 in
14:39 35.0 °F 29.0 °F 30.0 in NW 5 mph 5 mph 78% 0.000 in
14:44 35.0 °F 29.0 °F 30.0 in WNW 2 mph 5 mph 78% 0.000 in
14:49 35.0 °F 29.0 °F 30.0 in NW 4 mph 4 mph 78% 0.000 in
14:54 35.0 °F 29.0 °F 30.0 in WNW 5 mph 9 mph 77% 0.000 in
14:59 35.0 °F 28.0 °F 30.0 in West 3 mph 5 mph 76% 0.000 in
15:04 35.0 °F 29.0 °F 30.0 in NNW 3 mph 6 mph 77% 0.000 in
15:09 35.0 °F 29.0 °F 30.0 in NNW 4 mph 6 mph 78% 0.000 in
15:14 35.0 °F 29.0 °F 30.0 in West 2 mph 4 mph 78% 0.000 in
15:19 35.0 °F 29.0 °F 30.0 in WNW 2 mph 2 mph 78% 0.000 in
15:24 35.0 °F 29.0 °F 30.0 in NW 4 mph 5 mph 77% 0.000 in
15:29 35.0 °F 29.0 °F 30.0 in WNW 5 mph 6 mph 77% 0.000 in
15:34 35.0 °F 28.0 °F 30.0 in WNW 3 mph 7 mph 76% 0.000 in
15:39 35.0 °F 28.0 °F 30.0 in Calm   3 mph 76% 0.000 in
15:44 35.0 °F 28.0 °F 30.0 in NNW 4 mph 4 mph 76% 0.000 in
15:49 35.0 °F 28.0 °F 30.0 in NW 4 mph 5 mph 74% 0.000 in
15:54 35.0 °F 28.0 °F 30.0 in WNW 3 mph 4 mph 73% 0.000 in
15:59 35.0 °F 28.0 °F 30.0 in Calm   3 mph 73% 0.000 in
16:04 36.0 °F 28.0 °F 30.0 in WNW 1 mph 6 mph 72% 0.000 in
16:09 36.0 °F 27.0 °F 30.0 in WSW 2 mph 6 mph 71% 0.000 in
16:14 36.0 °F 27.0 °F 30.0 in WNW 1 mph 6 mph 70% 0.000 in
16:19 36.0 °F 27.0 °F 30.0 in NW 7 mph 8 mph 72% 0.000 in
16:24 35.0 °F 28.0 °F 30.0 in Calm   1 mph 73% 0.000 in
16:29 35.0 °F 27.0 °F 30.0 in West 1 mph 1 mph 71% 0.000 in
16:34 35.0 °F 27.0 °F 30.0 in Calm   1 mph 72% 0.000 in
16:39 35.0 °F 27.0 °F 30.0 in NW 3 mph 5 mph 72% 0.000 in
16:44 35.0 °F 27.0 °F 30.0 in Calm   5 mph 72% 0.000 in
16:49 35.0 °F 28.0 °F 30.0 in NW 2 mph 4 mph 73% 0.000 in
16:54 35.0 °F 28.0 °F 30.0 in North 1 mph 3 mph 73% 0.000 in
16:59 35.0 °F 27.0 °F 30.0 in NNW 1 mph 2 mph 73% 0.000 in
17:04 35.0 °F 26.0 °F 30.0 in NNW 3 mph 5 mph 71% 0.000 in
17:09 35.0 °F 26.0 °F 30.0 in Calm   2 mph 71% 0.000 in
17:14 34.0 °F 26.0 °F 30.0 in Calm   4 mph 72% 0.000 in
17:19 34.0 °F 26.0 °F 30.0 in Calm   1 mph 73% 0.000 in
17:24 34.0 °F 26.0 °F 30.0 in Calm   4 mph 73% 0.000 in
17:29 34.0 °F 27.0 °F 30.1 in Calm   2 mph 76% 0.000 in
17:34 34.0 °F 27.0 °F 30.1 in Calm   2 mph 76% 0.000 in
17:39 33.0 °F 26.0 °F 30.1 in NW 3 mph 3 mph 75% 0.000 in
17:44 33.0 °F 27.0 °F 30.1 in WNW 1 mph 3 mph 76% 0.000 in
17:49 33.0 °F 27.0 °F 30.1 in WNW 1 mph 1 mph 76% 0.000 in
17:54 33.0 °F 26.0 °F 30.1 in NNW 1 mph 3 mph 76% 0.000 in
17:59 33.0 °F 26.0 °F 30.1 in NW 3 mph 5 mph 74% 0.000 in
18:04 33.0 °F 25.0 °F 30.1 in WNW 3 mph 5 mph 74% 0.000 in
18:09 33.0 °F 26.0 °F 30.1 in NNW 1 mph 3 mph 75% 0.000 in
18:14 33.0 °F 26.0 °F 30.1 in Calm   1 mph 75% 0.000 in
18:19 32.0 °F 26.0 °F 30.1 in WNW 3 mph 6 mph 77% 0.000 in
18:24 32.0 °F 26.0 °F 30.1 in NW 2 mph 3 mph 78% 0.000 in
18:29 32.0 °F 26.0 °F 30.1 in West 4 mph 4 mph 79% 0.000 in
18:34 32.0 °F 25.0 °F 30.1 in North 3 mph 4 mph 77% 0.000 in
18:39 32.0 °F 26.0 °F 30.1 in Calm   4 mph 79% 0.000 in
18:44 32.0 °F 26.0 °F 30.1 in Calm   4 mph 80% 0.000 in
18:49 32.0 °F 26.0 °F 30.1 in NNW 2 mph 2 mph 81% 0.000 in
18:54 31.0 °F 26.0 °F 30.1 in Calm   1 mph 80% 0.000 in
18:59 31.0 °F 26.0 °F 30.1 in Calm   1 mph 82% 0.000 in
19:04 31.0 °F 26.0 °F 30.1 in Calm     83% 0.000 in
19:09 31.0 °F 26.0 °F 30.1 in Calm     82% 0.000 in
19:14 31.0 °F 26.0 °F 30.1 in Calm     83% 0.000 in
19:19 31.0 °F 26.0 °F 30.1 in Calm     83% 0.000 in
19:24 30.0 °F 26.0 °F 30.1 in Calm     84% 0.000 in
19:29 30.0 °F 26.0 °F 30.1 in Calm     85% 0.000 in
19:34 30.0 °F 26.0 °F 30.1 in Calm     86% 0.000 in
19:39 30.0 °F 26.0 °F 30.1 in Calm     87% 0.000 in
19:44 30.0 °F 26.0 °F 30.1 in Calm     87% 0.000 in
19:49 29.0 °F 26.0 °F 30.1 in Calm     86% 0.000 in
19:54 29.0 °F 26.0 °F 30.1 in Calm     86% 0.000 in
19:59 29.0 °F 25.0 °F 30.1 in Calm     86% 0.000 in
20:04 29.0 °F 25.0 °F 30.1 in Calm     87% 0.000 in
20:09 29.0 °F 25.0 °F 30.1 in Calm     87% 0.000 in
20:14 29.0 °F 26.0 °F 30.1 in Calm     88% 0.000 in
20:19 29.0 °F 25.0 °F 30.1 in Calm     87% 0.000 in
20:24 29.0 °F 25.0 °F 30.1 in Calm     87% 0.000 in
20:29 29.0 °F 25.0 °F 30.1 in Calm     86% 0.000 in
20:34 29.0 °F 25.0 °F 30.1 in Calm     87% 0.000 in
20:39 29.0 °F 26.0 °F 30.1 in Calm     88% 0.000 in
20:44 28.0 °F 26.0 °F 30.1 in Calm     89% 0.000 in
20:49 28.0 °F 25.0 °F 30.1 in Calm     89% 0.000 in
20:54 28.0 °F 25.0 °F 30.1 in Calm     89% 0.000 in
20:59 28.0 °F 25.0 °F 30.1 in Calm     89% 0.000 in
21:04 28.0 °F 25.0 °F 30.1 in Calm     89% 0.000 in
21:09 28.0 °F 25.0 °F 30.1 in Calm     90% 0.000 in
21:14 28.0 °F 25.0 °F 30.1 in Calm     90% 0.000 in
21:19 28.0 °F 25.0 °F 30.1 in Calm     90% 0.000 in
21:24 28.0 °F 25.0 °F 30.1 in Calm     90% 0.000 in
21:29 28.0 °F 25.0 °F 30.1 in Calm     90% 0.000 in
21:34 28.0 °F 25.0 °F 30.1 in Calm     91% 0.000 in
21:39 28.0 °F 25.0 °F 30.1 in Calm     91% 0.000 in
21:44 27.0 °F 25.0 °F 30.1 in Calm     91% 0.000 in
21:49 27.0 °F 25.0 °F 30.1 in Calm     91% 0.000 in
21:54 27.0 °F 25.0 °F 30.1 in Calm     91% 0.000 in
21:59 27.0 °F 25.0 °F 30.1 in Calm     91% 0.000 in
22:04 27.0 °F 25.0 °F 30.1 in Calm     91% 0.000 in
22:09 27.0 °F 25.0 °F 30.1 in Calm     91% 0.000 in
22:14 27.0 °F 25.0 °F 30.1 in Calm     91% 0.000 in
22:19 27.0 °F 25.0 °F 30.2 in Calm     91% 0.000 in
22:24 27.0 °F 25.0 °F 30.1 in Calm     91% 0.000 in
22:29 27.0 °F 25.0 °F 30.1 in Calm     92% 0.000 in
22:34 27.0 °F 25.0 °F 30.1 in Calm     92% 0.000 in
22:39 27.0 °F 25.0 °F 30.2 in Calm     93% 0.000 in
22:44 27.0 °F 25.0 °F 30.2 in Calm     93% 0.000 in
22:49 27.0 °F 25.0 °F 30.2 in Calm     93% 0.000 in
22:54 27.0 °F 25.0 °F 30.2 in Calm     93% 0.000 in
22:59 27.0 °F 25.0 °F 30.2 in Calm     92% 0.000 in
23:04 27.0 °F 25.0 °F 30.2 in Calm     92% 0.000 in
23:09 27.0 °F 25.0 °F 30.2 in Calm     92% 0.000 in
23:14 27.0 °F 25.0 °F 30.2 in Calm     92% 0.000 in
23:19 27.0 °F 25.0 °F 30.2 in Calm     92% 0.000 in
23:24 27.0 °F 25.0 °F 30.2 in Calm     92% 0.000 in
23:29 27.0 °F 25.0 °F 30.2 in Calm     92% 0.000 in
23:34 27.0 °F 25.0 °F 30.2 in Calm     92% 0.000 in
23:39 27.0 °F 25.0 °F 30.2 in Calm     92% 0.000 in
23:44 27.0 °F 25.0 °F 30.2 in Calm     92% 0.000 in
23:49 27.0 °F 25.0 °F 30.2 in Calm     92% 0.000 in
23:54 27.0 °F 25.0 °F 30.2 in Calm     93% 0.000 in
23:59 27.0 °F 25.0 °F 30.2 in Calm     93% 0.000 in
East Ellijay Weather
Compliments of Weather Underground - 2 mb